YE0EEE-10 Weather Reports


time (UTC)temp
C
wind
direction
speed
KPH
gust
KPH
rain 1hr
cm
rain 24hr
cm
rain mn
cm
humidity
%
barometer
mb
20260504005628 29 0 3.2 3.2 0.00 0.00 0.00 79 1013.1
20260504005425 29 35 4.8 6.4 0.00 0.00 0.00 79 1013.1
20260504005227 29 352 3.2 8.0 0.00 0.00 0.00 80 1013.1
20260504005025 29 56 3.2 6.4 0.00 0.00 0.00 80 1013.1
20260504004827 28 16 3.2 6.4 0.00 0.00 0.00 80 1013.1
20260504004625 28 355 3.2 6.4 0.00 0.00 0.00 80 1013.1
20260504004427 28 339 3.2 6.4 0.00 0.00 0.00 81 1013.1
20260504004225 28 324 3.2 6.4 0.00 0.00 0.00 81 1013.0
20260504004027 28 45 3.2 4.8 0.00 0.00 0.00 82 1012.9
20260504003825 28 45 3.2 4.8 0.00 0.00 0.00 82 1013.0
20260504003627 28 45 3.2 4.8 0.00 0.00 0.00 82 1013.0
20260504003425 28 3.2 4.8 0.00 0.00 0.00 82 1012.8
20260504003227 28 3.2 4.8 0.00 0.00 0.00 82 1012.8
20260504003025 28 3.2 4.8 0.00 0.00 0.00 82 1012.9
20260504002827 27 0 1.6 4.8 0.00 0.00 0.00 82 1012.9
20260504002625 27 0 1.6 4.8 0.00 0.00 0.00 83 1012.8
20260504002427 27 341 3.2 6.4 0.00 0.00 0.00 83 1012.8
20260504002225 27 330 3.2 8.0 0.00 0.00 0.00 83 1012.8
20260504002027 27 315 4.8 8.0 0.00 0.00 0.00 83 1012.8
20260504001825 27 285 4.8 6.4 0.00 0.00 0.00 84 1012.8
20260504001627 27 45 4.8 6.4 0.00 0.00 0.00 88 1012.7
20260504001425 27 45 1.6 6.4 0.00 0.00 0.00 88 1012.7
20260504001227 27 0.0 0.0 0.00 0.00 0.00 88 1012.8
20260504001025 27 0.0 0.0 0.00 0.00 0.00 88 1012.8
20260504000828 27 0.0 0.0 0.00 0.00 0.00 88 1012.7
20260504000625 26 0.0 0.0 0.00 0.00 0.00 88 1012.8
20260504000427 26 0.0 3.2 0.00 0.00 0.00 88 1012.7
20260504000226 26 45 0.0 3.2 0.00 0.00 0.00 88 1012.7
20260504000027 26 0.0 0.0 0.00 0.00 0.00 88 1012.7
20260503235825 26 0.0 0.0 0.00 0.00 0.00 88 1012.7
20260503235627 26 23 1.6 3.2 0.00 0.00 0.00 88 1012.7
20260503235425 26 0.0 0.0 0.00 0.00 0.00 88 1012.8
20260503235227 26 0.0 0.0 0.00 0.00 0.00 88 1012.7
20260503235025 26 0.0 0.0 0.00 0.00 0.00 87 1012.7
20260503234827 26 0.0 0.0 0.00 0.00 0.00 87 1012.7
20260503234625 26 0.0 0.0 0.00 0.00 0.00 87 1012.7
20260503234427 26 0.0 0.0 0.00 0.00 0.00 87 1012.7
20260503234225 26 0.0 0.0 0.00 0.00 0.00 87 1012.7
20260503234027 26 0.0 3.2 0.00 0.00 0.00 87 1012.8
20260503233825 26 354 1.6 3.2 0.00 0.00 0.00 87 1012.7
20260503233627 26 0.0 3.2 0.00 0.00 0.00 87 1012.8
20260503233425 26 0 0.0 3.2 0.00 0.00 0.00 87 1012.8
20260503233228 26 0.0 0.0 0.00 0.00 0.00 87 1012.8
20260503233025 26 315 1.6 3.2 0.00 0.00 0.00 87 1012.7
20260503232827 26 338 1.6 3.2 0.00 0.00 0.00 87 1012.7
20260503232625 26 45 1.6 3.2 0.00 0.00 0.00 87 1012.7
20260503232427 26 45 1.6 3.2 0.00 0.00 0.00 87 1012.7
20260503232225 26 338 1.6 4.8 0.00 0.00 0.00 87 1012.6
20260503232027 26 354 1.6 3.2 0.00 0.00 0.00 87 1012.6
20260503231825 26 315 0.0 3.2 0.00 0.00 0.00 87 1012.5
20260503231627 26 35 1.6 3.2 0.00 0.00 0.00 87 1012.4
20260503231425 26 335 3.2 4.8 0.00 0.00 0.00 87 1012.3
20260503231227 26 315 3.2 4.8 0.00 0.00 0.00 87 1012.3
20260503231025 26 0.0 0.0 0.00 0.00 0.00 87 1012.2
20260503230827 26 0.0 0.0 0.00 0.00 0.00 87 1012.1
20260503230625 26 0.0 0.0 0.00 0.00 0.00 87 1012.1
20260503230427 26 0.0 0.0 0.00 0.00 0.00 87 1012.0
20260503230225 26 0.0 0.0 0.00 0.00 0.00 86 1012.0
20260503230027 26 0.0 0.0 0.00 0.00 0.00 86 1012.0
20260503225825 26 0.0 0.0 0.00 0.00 0.00 86 1011.9
20260503225627 26 0.0 0.0 0.00 0.00 0.00 86 1011.9
20260503225425 26 0.0 0.0 0.00 0.00 0.00 86 1011.7
20260503225227 26 0.0 0.0 0.00 0.00 0.00 86 1011.7
20260503225025 26 135 0.0 4.8 0.00 0.00 0.00 86 1011.7
20260503224827 26 343 3.2 4.8 0.00 0.00 0.00 86 1011.7
20260503224625 26 266 1.6 3.2 0.00 0.00 0.00 86 1011.7
20260503224428 26 225 1.6 3.2 0.00 0.00 0.00 86 1011.7
20260503224225 26 225 1.6 3.2 0.00 0.00 0.00 86 1011.6
20260503224027 26 0.0 0.0 0.00 0.00 0.00 86 1011.6
20260503223825 26 0.0 0.0 0.00 0.00 0.00 86 1011.7
20260503223627 26 0.0 0.0 0.00 0.00 0.00 86 1011.7